Location: Be?chatów
(51.3665°N, 19.3745°E)
Time: 08:05:49
(UTC+00:00)

Cosmos 2221 - Pass Details

Date: 19 May 2025
Orbit: 572 x 593 km, 82.5° (Epoch: 16 June)

Event Time Altitude Azimuth Distance (km) Brightness Sun altitude
Exits shadow 21:37:35 11° 229° (SW) 1,852 4.8 -17.4°
Maximum altitude 21:41:08 29° 290° (WNW) 1,073 4.1 -17.5°
Drops below altitude 10° 21:44:48 10° 352° (N) 1,897 6.4 -17.7°
Sets 21:47:14 0° 3° (N) 2,798 7.4 -17.8°
